Regional Weather Roundup
Issued by NWS

Home | Current Version | Previous Version | Text Only | Print | Product List | Glossary Off
Versions: 1 2 3 4 5 6 7 8 9 10 11 12 13 14 15 16 17 18 19 20 21 22 23 24 25 26 27 28 29 30 31 32 33 34 35 36 37 38 39 40 41 42 43 44 45 46 47 48 49 50

000
ASUS45 KCYS 250010
RWRWY

WYOMING REGIONAL WEATHER ROUNDUP
NATIONAL WEATHER SERVICE CHEYENNE WY
600 PM MDT SUN MAY 24 2015

NOTE:  "FAIR" INDICATES FEW OR NO CLOUDS BELOW 12,000 FEET
WITH NO SIGNIFICANT WEATHER AND/OR OBSTRUCTIONS TO VISIBILITY.

WYZ001-250100-
YELLOWSTONE NATIONAL PARK

CITY           SKY/WX    TMP DP  RH WIND       PRES   REMARKS
LK YELLOWSTONE   N/A     45  39  79 VRB3      30.04F
6HR MIN TEMP:  43; 6HR MAX TEMP:  52; 6HR PCP:  0.02;

W YELLOWSTONE  NOT AVBL

$$
WYZ002>013-054>058-071-098>099-250100-
NORTHERN WYOMING

CITY           SKY/WX    TMP DP  RH WIND       PRES   REMARKS
JACKSON        PTSUNNY   55  39  54 N12       29.93F
CODY           CLOUDY    50  45  81 N10       29.99S
GREYBULL       CLOUDY    57  45  64 NW18      29.89S
6HR MIN TEMP:  56; 6HR MAX TEMP:  58;

WORLAND        LGT RAIN  54  46  74 CALM      29.91R
6HR MIN TEMP:  53; 6HR MAX TEMP:  55; 6HR PCP:  0.11;

SHERIDAN       RAIN      51  49  92 N15       29.94F FOG
6HR MIN TEMP:  50; 6HR MAX TEMP:  52; 6HR PCP:  0.61;

BUFFALO        HVY RAIN  46  44  93 W13       29.94S VSB 1
6HR MIN TEMP:  47; 6HR MAX TEMP:  49; 6HR PCP:  1.01;

GILLETTE       CLOUDY    51  49  92 NE13      29.90S
6HR MIN TEMP:  51; 6HR MAX TEMP:  53; 6HR PCP:  0.30;

HULETT         CLOUDY    52  50  93 NE6       29.92S
NEWCASTLE      FAIR      61  43  51 NW6       29.85S

$$
WYZ014>020-022>026-101>103-250100-
CENTRAL WYOMING

CITY           SKY/WX    TMP DP  RH WIND       PRES   REMARKS
BIG PINEY      LGT RAIN  46  42  86 S9        29.96R
6HR MIN TEMP:  45; 6HR MAX TEMP:  58; 6HR PCP:  0.04;

PINEDALE       FAIR      48  36  61 SW3       29.94F
DUBOIS         MOCLDY    45  37  76 SW5       29.97F
LANDER         CLOUDY    50  41  71 NW12      29.93S
6HR MIN TEMP:  45; 6HR MAX TEMP:  50; 6HR PCP:  0.15;

RIVERTON       CLOUDY    51  42  71 N14       29.94S
6HR MIN TEMP:  46; 6HR MAX TEMP:  53; 6HR PCP:  0.21;

CASPER         FAIR      51  43  74 N10       29.90R
6HR MIN TEMP:  48; 6HR MAX TEMP:  58; 6HR PCP: TRACE;

DOUGLAS        CLOUDY    51  46  83 W14       29.88S
6HR MIN TEMP:  50; 6HR MAX TEMP:  63; 6HR PCP:  0.03;


$$
WYZ021-027>030-104>119-250100-
SOUTHERN WYOMING

CITY           SKY/WX    TMP DP  RH WIND       PRES   REMARKS
EVANSTON       FAIR      49  42  77 S12       29.96S
6HR MIN TEMP:  46; 6HR MAX TEMP:  55; 6HR PCP:  0.03;

KEMMERER       LGT RAIN  43  41  93 E9G21     29.96R
FORT BRIDGER   CLOUDY    50  45  81 S9        29.98F
ROCK SPRINGS   CLOUDY    44  40  85 CALM      29.96R
6HR MIN TEMP:  34; 6HR MAX TEMP:  47; 6HR PCP:  0.04;

DIXON          CLOUDY    47  37  66 SW7       29.95S
RAWLINS        FAIR      52  35  52 VRB3      29.91S
6HR MIN TEMP:  42; 6HR MAX TEMP:  54; 6HR PCP: TRACE;

SARATOGA       LGT RAIN  43  37  81 MISG      29.94F
LARAMIE        PTSUNNY   43  36  76 MISG      29.91F
6HR MIN TEMP:  43; 6HR MAX TEMP:  54; 6HR PCP: TRACE;

CHEYENNE       FAIR      53  41  63 E8        29.85F
6HR MIN TEMP:  46; 6HR MAX TEMP:  60; 6HR PCP:  0.01;

TORRINGTON     LGT RAIN  56  47  71 VRB3      29.81R
6HR MIN TEMP:  55; 6HR MAX TEMP:  68;

PINE BLUFFS    CLOUDY    50  45  81 NW14      29.86R

$$



USA.gov is the U.S. government's official web portal to all federal, state and local government web resources and services.